Location: Newark
(37.3144°N, 138.7950°E)
Time: 08:11:34
(UTC+00:00)

OTV 5 (USA 277) - Visible Passes

Search period start: 26 August 2019 00:00
Search period end: 05 September 2019 00:00
Orbit: 305 x 329 km, 54.5° (Epoch: 20 August)

Date Brightness Start Highest point End Pass type
(mag) Time Alt. Az. Time Alt. Az. Time Alt. Az.
26 Aug ? 10:51:52 10° WNW 10:53:38 16° NW 10:55:24 10° N visible
28 Aug ? 09:46:05 10° W 09:48:22 24° NW 09:50:39 10° NNE visible
29 Aug ? 10:02:17 10° NW 10:03:09 11° NNW 10:04:02 10° NNW visible
